PROGRESS-MS 21 (54155 NORAD) Tracking and Keplerian Element Data

This shows tracking and keplerian element data for the satellite.

Feedback or suggestion? Click here.




ElementValue
Catalog54155
NamePROGRESS-MS 21
Epoch Orbit36941
Epoch Day324.43010292
Epoch Year2022
RAAN282.5846
Inclination51.6438
Eccentricity0.0006965
Argument of Perigee94.1712
Mean Anonmoly47.5689
Mean Motion15.50101142
Decay Rate0.000101
L11 54155U 22140A 22324.43010292 .00010100 00000+0 18398-3 0 9996
L22 54155 51.6438 282.5846 0006965 94.1712 47.5689 15.50101142369416



Live tracking and technical data element details for PROGRESS-MS 21 (NORAD 54155). PROGRESS-MS 21 can be tracked NOW for your location showing map with azimuth and elevation plus other details from your city location.







IsCatalogInMostPopularTable: catalog: 54155, numindb: 11
Update: records affected: 1



GetName: 54155 PROGRESS-MS 21

Hit Count: updated at: Sun, 04 Dec 2022 22:48:22 GMT